Preview of NWS' New Version of Forecast
This preview is not operational and should not be used for support decisions.

Regional Weather Roundup (RWR)

Issued by National Weather Service (NWS)

                            
000
ASUS46 KSEW 230110
RWRWA 

WASHINGTON REGIONAL WEATHER ROUNDUP
NATIONAL WEATHER SERVICE SEATTLE WA
600 PM PDT THU AUG 22 2019

NOTE:"FAIR" INDICATES FEW OR NO CLOUDS BELOW 12,000 FEET WITH NO 
SIGNIFICANT WEATHER AND/OR OBSTRUCTIONS TO VISIBILITY.

WAZ507-509-555>559-230200-
SEATTLE, TACOMA, EVERETT, AND VICINITY
  
CITY           SKY/WX    TMP DP  RH WIND       PRES   REMARKS
EVERETT        SUNNY     68  50  52 W5        30.07F                  
BOEING FIELD   MOSUNNY   72  51  47 VRB3      30.05F                  
RENTON         SUNNY     71  54  54 VRB3      30.05F                  
SEATAC AIRPORT MOSUNNY   70  50  49 W7        30.07S                  
JBLM-MCCHORD   MOSUNNY   68  54  60 SE1       30.06F                  
PUYALLUP       PTSUNNY   70  57  64 E3        30.07F                  
BREMERTON      MOSUNNY   69  56  62 SE6       30.07S                  
JBLM-FT LEWIS  NOT AVBL                                               
TACOMA NARROWS MOSUNNY   67  53  61 NE3       30.06F                  
$$
 
WAZ001-503-506-510-514-515-230200-
NORTH INTERIOR
  
CITY           SKY/WX    TMP DP  RH WIND       PRES   REMARKS
BELLINGHAM     MOSUNNY   69  50  50 SW3       30.05S                  
FRIDAY HARBOR  SUNNY     67  50  54 SE5       30.06S                  
EASTSOUND        N/A     70  48  46 N3        30.04S                  
PORT ANGELES   SUNNY     68  49  50 E8        30.06F                  
EDIZ HOOK      FAIR      61  50  67 S5        30.05F                  
PORT TOWNSEND  FAIR      70  52  52 E8        30.04F                  
NAS WHIDBEY    MOSUNNY   70  50  49 NW5       30.09F                  
ARLINGTON      SUNNY     72  53  51 NW6       30.05F                  
BURLINGTON     SUNNY     77  50  38 W3        30.05S                  
$$
 
WAZ020-022-039-040-504-511-512-230200-
SOUTHWEST INTERIOR
  
CITY           SKY/WX    TMP DP  RH WIND       PRES   REMARKS
SHELTON        CLOUDY    70  55  59 S6        30.04S                  
OLYMPIA        MOSUNNY   70  53  54 NE5       30.06F                  
CHEHALIS       FAIR      72  55  56 VRB5G12   30.05F                  
KELSO          MOSUNNY   72  54  53 VRB7      30.04S                  
VANCOUVER      SUNNY     73  51  46 CALM      30.02F                  
SCAPPOOSE, OR  SUNNY     73  52  47 N12       30.02S                  
PORTLAND, OR   MOSUNNY   73  53  49 NE5       30.02F                  
$$
 
WAZ021-516-517-230200-
WASHINGTON COAST
  
CITY           SKY/WX    TMP DP  RH WIND       PRES   REMARKS
FORKS          MOSUNNY   62  53  72 W6        30.07S                  
HOQUIAM        SUNNY     65  55  70 W10       30.08F                  
ASTORIA, OR    SUNNY     64  52  64 NW14      30.06F                  
$$
 
WAZ019-023-024-040-567>569-230200-
CASCADE MOUNTAINS AND COLUMBIA GORGE
  
CITY           SKY/WX    TMP DP  RH WIND       PRES   REMARKS
STAMPEDE PASS  SUNNY     56  49  77 VRB5      30.10S                  
TROUTDALE, OR  MOSUNNY   72  53  51 VRB3      30.03S                  
HOOD RIVER, OR CLEAR     70  52  52 W10G20    29.97S                  
THE DALLES, OR SUNNY     74  53  48 NW21G29   29.91S                  
$$

WAZ026-027-041>044-520-521-230200-
EAST SLOPES
  
CITY           SKY/WX    TMP DP  RH WIND       PRES   REMARKS
OMAK           FAIR      86  40  19 N8        29.88S                  
WENATCHEE      MOSUNNY   83  34  17 VRB3      29.88S                  
ELLENSBURG     SUNNY     76  46  34 NW24G33   29.93S                  
YAKIMA         SUNNY     83  43  24 SE9       29.90S                  
SUNNYSIDE ARPT PTCLDY    81  52  36 E3        29.89S                  
YAKIMA TC      FAIR      82  42  24 S10       29.89S                  
$$

WAZ028-034-035-230200-
COLUMBIA BASIN
  
CITY           SKY/WX    TMP DP  RH WIND       PRES   REMARKS
EPHRATA        SUNNY     82  41  23 S10       29.90R                  
MOSES LAKE     MOSUNNY   83  45  26 S8        29.91R                  
PASCO          SUNNY     86  49  27 VRB5      29.89S                  
RICHLAND ARPT  PTCLDY    85  49  29 CALM      29.88                   
HERMISTON, OR  SUNNY     81  49  32 W3        29.90S                  
$$

WAZ036>038-230200-
NORTHEAST WASHINGTON
  
CITY           SKY/WX    TMP DP  RH WIND       PRES   REMARKS
SPOKANE GEIGER MOSUNNY   76  51  41 S5        29.94S                  
SPOKANE FELTS  MOSUNNY   79  52  38 S6        29.93S                  
FAIRCHILD AFB  SUNNY     76  50  39 S9        29.94S                  
COEURDALENE,ID SUNNY     72  56  57 S7        29.96S                  
DEER PARK        N/A     76  54  46 SE10      29.93S                  
$$

WAZ029>033-230200-
SOUTHEAST WASHINGTON
  
CITY           SKY/WX    TMP DP  RH WIND       PRES   REMARKS
PULLMAN        SUNNY     75  51  43 W10       29.98S                  
LEWISTON, ID   SUNNY     82  49  31 NW8       29.90S                  
WALLA WALLA    SUNNY     80  40  23 CALM      29.92S                  
PENDLETON, OR  SUNNY     78  47  33 VRB5      29.93S                  
$$